• In France
  • List of Countries
  • For 7 days
  • Water Temperature
  • Satellite Maps
  • Weather Map
  • Weather Widgets
  • user-avatar
    Login

    Hourly Weather Bouake

    Today, 16 December, Saturday

    Time Temperature Precipitation Wind Pressure Humidity
    00:00 +28°C° 0 mm 2 mps 729 mmHg 64%
    01:00 +27°C° 0 mm 2 mps 728 mmHg 69%
    02:00 +26°C° 0 mm 1 mps 728 mmHg 74%
    03:00 +26°C° 0 mm 1 mps 728 mmHg 80%
    04:00 +25°C° 0 mm 1 mps 728 mmHg 82%
    05:00 +25°C° 0 mm 1 mps 729 mmHg 84%
    06:00 +25°C° 0 mm 1 mps 729 mmHg 87%
    07:00 +26°C° 0 mm 1 mps 729 mmHg 79%
    08:00 +28°C° 0 mm 1 mps 730 mmHg 72%
    09:00 +30°C° 0 mm 2 mps 730 mmHg 64%
    10:00 +32°C° 0 mm 1 mps 730 mmHg 55%
    11:00 +35°C° 0 mm 1 mps 730 mmHg 46%
    12:00 +37°C° 0 mm 1 mps 730 mmHg 36%
    13:00 +37°C° 0 mm 1 mps 729 mmHg 35%
    14:00 +35°C° 0 mm 0 mps 728 mmHg 33%
    15:00 +35°C° 0 mm 0 mps 728 mmHg 32%
    16:00 +36°C° 0 mm 1 mps 728 mmHg 34%
    17:00 +35°C° 0 mm 1 mps 728 mmHg 36%
    18:00 +34°C° 0 mm 2 mps 728 mmHg 38%
    19:00 +32°C° 0 mm 2 mps 728 mmHg 42%
    20:00 +31°C° 0 mm 2 mps 729 mmHg 46%
    21:00 +30°C° 0 mm 2 mps 730 mmHg 50%
    22:00 +29°C° 0 mm 2 mps 730 mmHg 56%
    23:00 +29°C° 0 mm 2 mps 729 mmHg 61%

    Tomorrow, 17 December, Sunday

    Time Temperature Precipitation Wind Pressure Humidity
    00:00 +28°C° 0 mm 2 mps 729 mmHg 66%
    01:00 +27°C° 0 mm 2 mps 729 mmHg 69%
    02:00 +27°C° 0 mm 2 mps 729 mmHg 72%
    03:00 +26°C° 0 mm 1 mps 729 mmHg 74%
    04:00 +26°C° 0 mm 1 mps 729 mmHg 77%
    05:00 +26°C° 0 mm 1 mps 729 mmHg 80%
    06:00 +25°C° 0 mm 1 mps 729 mmHg 82%
    07:00 +27°C° 0 mm 1 mps 729 mmHg 76%
    08:00 +28°C° 0 mm 2 mps 730 mmHg 71%
    09:00 +29°C° 0 mm 2 mps 730 mmHg 65%
    10:00 +31°C° 0 mm 2 mps 730 mmHg 56%
    11:00 +34°C° 0 mm 2 mps 730 mmHg 48%
    12:00 +36°C° 0 mm 1 mps 729 mmHg 40%
    13:00 +36°C° 0 mm 1 mps 729 mmHg 38%
    14:00 +36°C° 0 mm 1 mps 728 mmHg 36%
    15:00 +36°C° 0 mm 1 mps 727 mmHg 34%
    16:00 +36°C° 0 mm 2 mps 727 mmHg 38%
    17:00 +34°C° 0 mm 2 mps 727 mmHg 42%
    18:00 +32°C° 0 mm 2 mps 727 mmHg 45%
    19:00 +31°C° 0.1 mm 2 mps 728 mmHg 47%
    20:00 +30°C° 0.1 mm 2 mps 728 mmHg 49%
    21:00 +30°C° 0.1 mm 2 mps 729 mmHg 51%
    22:00 +29°C° 0 mm 2 mps 729 mmHg 57%
    23:00 +28°C° 0 mm 2 mps 729 mmHg 63%

    Day after tomorrow, 18 December, Monday

    Time Temperature Precipitation Wind Pressure Humidity
    00:00 +27°C° 0 mm 2 mps 729 mmHg 69%
    01:00 +27°C° 0 mm 2 mps 729 mmHg 74%
    02:00 +26°C° 0 mm 2 mps 728 mmHg 79%
    03:00 +26°C° 0 mm 2 mps 728 mmHg 84%
    04:00 +25°C° 0 mm 2 mps 728 mmHg 86%
    05:00 +25°C° 0 mm 2 mps 728 mmHg 88%
    06:00 +25°C° 0 mm 2 mps 729 mmHg 90%
    07:00 +26°C° 0 mm 2 mps 729 mmHg 83%
    08:00 +28°C° 0 mm 2 mps 730 mmHg 75%
    09:00 +29°C° 0 mm 2 mps 730 mmHg 68%
    10:00 +31°C° 0 mm 2 mps 730 mmHg 59%
    11:00 +34°C° 0 mm 2 mps 730 mmHg 50%
    12:00 +36°C° 0 mm 2 mps 729 mmHg 42%
    13:00 +38°C° 0 mm 2 mps 728 mmHg 37%
    14:00 +39°C° 0 mm 1 mps 727 mmHg 32%
    15:00 +40°C° 0 mm 1 mps 726 mmHg 28%
    16:00 +37°C° 0 mm 1 mps 726 mmHg 31%
    17:00 +35°C° 0 mm 1 mps 726 mmHg 34%
    18:00 +34°C° 0 mm 1 mps 726 mmHg 37%
    19:00 +34°C° 0 mm 2 mps 727 mmHg 40%
    20:00 +32°C° 0 mm 2 mps 727 mmHg 43%
    21:00 +31°C° 0 mm 2 mps 728 mmHg 46%
    22:00 +30°C° 0.1 mm 2 mps 728 mmHg 55%
    23:00 +29°C° 0.1 mm 3 mps 728 mmHg 63%

    19 December, Tuesday

    Time Temperature Precipitation Wind Pressure Humidity
    00:00 +28°C° 0.1 mm 3 mps 728 mmHg 72%
    01:00 +27°C° 0.4 mm 3 mps 728 mmHg 76%
    02:00 +27°C° 0.4 mm 3 mps 728 mmHg 80%
    03:00 +26°C° 0.4 mm 3 mps 727 mmHg 84%
    04:00 +26°C° 0.2 mm 2 mps 728 mmHg 85%
    05:00 +26°C° 0.2 mm 2 mps 728 mmHg 86%
    06:00 +25°C° 0.2 mm 2 mps 728 mmHg 87%
    07:00 +26°C° 0.2 mm 2 mps 729 mmHg 82%
    08:00 +28°C° 0.2 mm 3 mps 729 mmHg 76%
    09:00 +29°C° 0.2 mm 3 mps 730 mmHg 70%
    10:00 +30°C° 0 mm 3 mps 729 mmHg 64%
    11:00 +33°C° 0 mm 3 mps 729 mmHg 57%
    12:00 +34°C° 0 mm 2 mps 729 mmHg 51%
    13:00 +35°C° 0 mm 2 mps 728 mmHg 48%
    14:00 +35°C° 0 mm 2 mps 727 mmHg 45%
    15:00 +35°C° 0 mm 1 mps 726 mmHg 42%
    16:00 +34°C° 0 mm 1 mps 726 mmHg 44%
    17:00 +33°C° 0 mm 1 mps 727 mmHg 45%
    18:00 +32°C° 0 mm 1 mps 727 mmHg 47%
    19:00 +31°C° 0.1 mm 2 mps 727 mmHg 54%
    20:00 +30°C° 0.1 mm 3 mps 728 mmHg 60%
    21:00 +29°C° 0.1 mm 3 mps 729 mmHg 66%
    22:00 +28°C° 0.1 mm 3 mps 728 mmHg 72%
    23:00 +27°C° 0.1 mm 3 mps 728 mmHg 77%

    20 December, Wednesday

    Time Temperature Precipitation Wind Pressure Humidity
    00:00 +26°C° 0.1 mm 3 mps 728 mmHg 82%
    01:00 +26°C° 0 mm 3 mps 728 mmHg 84%
    02:00 +26°C° 0 mm 2 mps 728 mmHg 86%
    03:00 +25°C° 0 mm 2 mps 727 mmHg 88%
    04:00 +25°C° 0 mm 2 mps 727 mmHg 88%
    05:00 +25°C° 0 mm 2 mps 728 mmHg 88%
    06:00 +25°C° 0 mm 2 mps 728 mmHg 87%
    07:00 +26°C° 0 mm 2 mps 729 mmHg 83%
    08:00 +27°C° 0 mm 2 mps 729 mmHg 78%
    09:00 +28°C° 0 mm 2 mps 730 mmHg 73%
    10:00 +30°C° 0 mm 2 mps 729 mmHg 65%
    11:00 +32°C° 0 mm 2 mps 729 mmHg 56%
    12:00 +35°C° 0 mm 2 mps 729 mmHg 48%
    13:00 +36°C° 0 mm 2 mps 728 mmHg 44%
    14:00 +36°C° 0 mm 1 mps 727 mmHg 40%
    15:00 +36°C° 0 mm 1 mps 726 mmHg 37%
    16:00 +35°C° 0 mm 1 mps 727 mmHg 40%
    17:00 +34°C° 0 mm 1 mps 727 mmHg 43%
    18:00 +33°C° 0 mm 1 mps 727 mmHg 46%
    19:00 +32°C° 0.1 mm 2 mps 728 mmHg 50%
    20:00 +31°C° 0.1 mm 2 mps 728 mmHg 53%
    21:00 +30°C° 0.1 mm 2 mps 729 mmHg 57%
    22:00 +29°C° 0.2 mm 2 mps 729 mmHg 63%
    23:00 +28°C° 0.2 mm 2 mps 728 mmHg 70%

    21 December, Thursday

    Time Temperature Precipitation Wind Pressure Humidity
    00:00 +27°C° 0.2 mm 2 mps 728 mmHg 76%
    01:00 +26°C° 0.2 mm 2 mps 728 mmHg 79%
    02:00 +26°C° 0.2 mm 2 mps 728 mmHg 82%
    03:00 +25°C° 0.2 mm 2 mps 727 mmHg 85%
    04:00 +25°C° 0 mm 2 mps 728 mmHg 87%
    05:00 +25°C° 0 mm 2 mps 728 mmHg 89%
    06:00 +25°C° 0 mm 1 mps 728 mmHg 91%
    07:00 +26°C° 0.1 mm 1 mps 729 mmHg 84%
    08:00 +27°C° 0.1 mm 2 mps 729 mmHg 77%
    09:00 +29°C° 0.1 mm 2 mps 730 mmHg 70%
    10:00 +31°C° 0.4 mm 2 mps 730 mmHg 62%
    11:00 +34°C° 0.4 mm 2 mps 729 mmHg 53%
    12:00 +35°C° 0.4 mm 1 mps 729 mmHg 45%
    13:00 +35°C° 0.1 mm 1 mps 729 mmHg 44%
    14:00 +35°C° 0.1 mm 1 mps 728 mmHg 42%
    15:00 +33°C° 0.1 mm 0 mps 727 mmHg 41%
    16:00 +34°C° 0 mm 1 mps 727 mmHg 43%
    17:00 +33°C° 0 mm 1 mps 728 mmHg 46%
    18:00 +32°C° 0 mm 1 mps 728 mmHg 49%
    19:00 +31°C° 0.2 mm 1 mps 728 mmHg 54%
    20:00 +30°C° 0.2 mm 2 mps 729 mmHg 60%
    21:00 +29°C° 0.2 mm 2 mps 729 mmHg 65%
    22:00 +28°C° 0.4 mm 2 mps 729 mmHg 69%
    23:00 +27°C° 0.4 mm 3 mps 729 mmHg 74%
    Show more